This demonstration page uses our WeatherBlox Daily Observations layout. Learn more.

41.55636, -103.73856

Hourly Observations for June 8, 2017

Temp ( °F °C ) Dew Point ( °F °C ) Humidity (%) Winds ( mph kmh ) Pressure ( in mb ) Visibility ( mi km ) Precip ( " mm )
12:53 am 00:53 Clear 59 15 55 12.8 87 87 NNE 8 13 29.93 1014 10 16.0934 0 0
1:53 am 01:53 Clear 60 15.6 55 12.8 84 84 Calm 29.94 1014 10 16.0934 0 0
2:53 am 02:53 Clear 58 14.4 55 12.8 90 90 S 5 7 29.94 1014 10 16.0934 0 0
3:53 am 03:53 Clear 59 15 55 12.8 87 87 E 5 7 29.92 1013 10 16.0934 0 0
4:53 am 04:53 Clear 57 13.9 53 11.7 87 87 E 6 9 29.92 1013 10 16.0934 0 0
5:53 am 05:53 Sunny 56 13.3 53 11.7 90 90 ESE 9 15 29.93 1014 7 11.26538 0 0
6:53 am 06:53 Sunny 59 15 55 12.8 87 87 E 9 15 29.93 1014 8 12.87472 0 0
7:53 am 07:53 Sunny 65 18.3 56 13.3 73 73 ESE 5 7 29.92 1013 10 16.0934 0 0
8:53 am 08:53 Sunny 69 20.6 57 13.9 66 66 SE 6 9 29.9 1013 10 16.0934 0 0
9:53 am 09:53 Sunny 75 23.9 58 14.4 55 55 ESE 5 7 29.88 1012 10 16.0934 0 0
10:53 am 10:53 Sunny 78 25.6 56 13.3 47 47 VRB 7 11 29.87 1011 10 16.0934 0 0
11:53 am 11:53 Sunny 81 27.2 54 12.2 39 39 SE 14 22 29.85 1011 10 16.0934 0 0
12:53 pm 12:53 Sunny 85 29.4 53 11.7 33 33 SSE 16 26 29.83 1010 10 16.0934 0 0
1:53 pm 13:53 Sunny 86 30 54 12.2 33 33 SSE 12 19 29.81 1009 10 16.0934 0 0
2:53 pm 14:53 Sunny 86 30 53 11.7 32 32 SSE 14 22 29.79 1009 10 16.0934 0 0
3:53 pm 15:53 Sunny 87 30.6 53 11.7 31 31 SE 16 26 29.77 1008 10 16.0934 0 0
4:53 pm 16:53 Sunny 87 30.6 54 12.2 32 32 ESE 16 26 29.75 1007 10 16.0934 0 0
5:53 pm 17:53 Sunny 86 30 53 11.7 32 32 ESE 18 30 29.73 1007 10 16.0934 0 0
6:53 pm 18:53 Sunny 83 28.3 55 12.8 38 38 SE 15 24 29.73 1007 10 16.0934 0 0
7:53 pm 19:53 Sunny 80 26.7 56 13.3 44 44 SE 12 19 29.72 1006 10 16.0934 0 0
8:53 pm 20:53 Clear 75 23.9 57 13.9 54 54 SE 14 22 29.71 1006 10 16.0934 0 0
9:53 pm 21:53 Clear 69 20.6 57 13.9 66 66 ESE 9 15 29.72 1007 10 16.0934 0 0
10:53 pm 22:53 Clear 67 19.4 55 12.8 66 66 ESE 7 11 29.72 1006 10 16.0934 0 0
11:53 pm 23:53 Clear 67 19.4 55 12.8 66 66 E 10 17 29.7 1006 10 16.0934 0 0

Powered by AerisWeather